Location: Newark
(50.8547°N, 2.7256°E)
Time: 23:28:25
(UTC+00:00)

Envisat - Pass Details

Date: 26 January 2020
Orbit: 764 x 766 km, 98.1° (Epoch: 24 February)

Event Time Altitude Azimuth Distance (km) Brightness Sun altitude
Rises 05:32:54 0° 23° (NNE) 3,245 6.5 -19.0°
Reaches altitude 10° 05:35:39 10° 38° (NE) 2,313 5.9 -18.5°
Maximum altitude 05:39:45 24° 91° (E) 1,551 5.5 -17.9°
Drops below altitude 10° 05:43:49 10° 145° (SE) 2,298 6.1 -17.2°
Sets 05:46:31 0° 159° (SSE) 3,219 6.7 -16.8°
